Regional Weather Roundup
Issued by NWS Columbia, SC

Home | Current Version | Previous Version | Text Only | Print | Product List | Glossary On
Versions: 1 2 3 4 5 6 7 8 9 10 11 12 13 14 15 16 17 18 19 20 21 22 23 24 25 26 27 28 29 30 31 32 33 34 35 36 37 38 39 40 41 42 43 44 45 46 47 48 49 50
000
ASUS42 KCAE 301810
RWRCAE
REGIONAL WEATHER ROUNDUP
NATIONAL WEATHER SERVICE COLUMBIA SC
200 PM EDT SUN AUG 30 2015

NOTE: "FAIR" INDICATES FEW OR NO CLOUDS BELOW 12,000 FEET WITH NO
SIGNIFICANT WEATHER AND/OR OBSTRUCTIONS TO VISIBILITY.

NOT ALL STATIONS ARE QUALITY CONTROLLED BY THE NATIONAL
WEATHER SERVICE. USE DATA WITH CAUTION...ESPECIALLY
DEWPOINT OBSERVATIONS.

SCZ001>056-GAZ040-063>065-077-301900-
...UPSTATE SOUTH CAROLINA...

CITY           SKY/WX    TMP DP  RH WIND       PRES   REMARKS
ANDERSON       LGT RAIN  76  62  62 E7        30.16F
6HR MIN TEMP:  70; 6HR MAX TEMP:  79; 6HR PCP: TRACE;

LIBERTY        CLOUDY    79  62  56 E7        30.16F
6HR MIN TEMP:  60; 6HR MAX TEMP:  89;

SPARTANBURG    CLOUDY    82  61  47 NE7       30.16F
CLEMSON        LGT RAIN  78  62  57 E5        30.18S
6HR MIN TEMP:  72; 6HR MAX TEMP:  79; 6HR PCP: TRACE;

GREENVILLE     CLOUDY    80  55  42 E7        30.18F
6HR MIN TEMP:  71; 6HR MAX TEMP:  80; 6HR PCP: TRACE;

GREENWOOD      CLOUDY    76  65  68 NE9       30.17F
6HR MIN TEMP:  69; 6HR MAX TEMP:  77; 6HR PCP:  0.02;

GREER          CLOUDY    79  61  53 E6        30.16F
6HR MIN TEMP:  70; 6HR MAX TEMP:  79; 6HR PCP: TRACE;

ROCK HILL      LGT RAIN  77  64  64 CALM      30.18F
6HR MIN TEMP:  68; 6HR MAX TEMP:  79; 6HR PCP: TRACE;

LAURENS        CLOUDY    77  68  73 E9        30.17S


...CENTRAL SOUTH CAROLINA...

CITY           SKY/WX    TMP DP  RH WIND       PRES   REMARKS
COLUMBIA APT   CLOUDY    80  65  59 N7        30.14S
6HR MIN TEMP:  73; 6HR MAX TEMP:  80; 6HR PCP:  0.02;

COLUMBIA OWENS HVY RAIN  76  69  79 NE6       30.15F
6HR MIN TEMP:  73; 6HR MAX TEMP:  81; 6HR PCP: TRACE;

DARLINGTON     CLOUDY    81  66  61 E3        30.17R
6HR MIN TEMP:  66; 6HR MAX TEMP:  81;

FLORENCE       RAIN      78  71  79 CALM      30.15S
6HR MIN TEMP:  71; 6HR MAX TEMP:  81; 6HR PCP:  0.04;

MCENTIRE ANGB  LGT RAIN  74  71  89 NE5       30.14F
6HR MIN TEMP:  71; 6HR MAX TEMP:  76; 6HR PCP:  0.01;

ORANGEBURG     LGT RAIN  80  73  79 VRB6      30.12F
6HR MIN TEMP:  69; 6HR MAX TEMP:  79; 6HR PCP:  0.02;

SUMTER SHAW    CLOUDY    80  69  70 NE9       30.13S
6HR MIN TEMP:  70; 6HR MAX TEMP:  80; 6HR PCP:  0.01;

NEWBERRY       CLOUDY    77  63  61 E8G16     30.19S
AIKEN          CLOUDY    77  68  73 NE10G17   30.17S
BARNWELL       FAIR      81  73  78 E8        30.12F
MANNING        MOCLDY    79  73  83 E3        30.13S
CAMDEN         FAIR      79  66  65 NE5       30.16S
LANCASTER      CLOUDY    77  64  65 NE3       30.17S
WINNSBORO      CLOUDY    72  68  88 N5        30.17S


...EASTERN AND COASTAL SOUTH CAROLINA...

CITY           SKY/WX    TMP DP  RH WIND       PRES   REMARKS
MYRTLE BEACH   RAIN      79  72  78 SE15      30.17R
N MYRTLE BCH   LGT RAIN  80  71  74 SE9       30.15R
6HR MIN TEMP:  73; 6HR MAX TEMP:  83; 6HR PCP: TRACE;

CONWAY         HVY RAIN  75  72  88 S8        30.16R
MARION         MOCLDY    82  66  57 CALM      30.14S
HARTSVILLE     MOCLDY    79  64  61 NE5       30.16S
FLORENCE       RAIN      78  71  79 CALM      30.15S
6HR MIN TEMP:  71; 6HR MAX TEMP:  81; 6HR PCP:  0.04;

DARLINGTON     CLOUDY    81  66  61 E3        30.17R
6HR MIN TEMP:  66; 6HR MAX TEMP:  81;

CHARLESTON APT LGT RAIN  77  74  90 E8        30.14R
6HR MIN TEMP:  75; 6HR MAX TEMP:  79; 6HR PCP:  0.28;

MOUNT PLEASANT HVY RAIN  75  75 100 E6        30.13F
WALTERBORO     CLOUDY    81  72  74 E8        30.12S
BEAUFORT       CLOUDY    78  75  90 E7        30.12R
6HR MIN TEMP:  75; 6HR MAX TEMP:  80; 6HR PCP:  0.02;



...EASTERN GEORGIA...

CITY           SKY/WX    TMP DP  RH WIND       PRES   REMARKS
AUGUSTA BUSH F CLOUDY    81  74  79 E9        30.10F
6HR MIN TEMP:  70; 6HR MAX TEMP:  81; 6HR PCP:  0.08;

AUGUSTA DANIEL CLOUDY    86  73  65 SE5       30.12F
6HR MIN TEMP:  74; 6HR MAX TEMP:  88; 6HR PCP:  0.05;

THOMSON        CLOUDY    77  76  98 NE7       30.16F
WASHINGTON     HVY RAIN  72  72 100 CALM      30.15R
SYLVANIA       MOCLDY    82  77  87 E6        30.10F
6HR MIN TEMP:  73; 6HR MAX TEMP:  82;

STATESBORO     PTSUNNY   82  81  97 E8        30.09F
6HR MIN TEMP:  71; 6HR MAX TEMP:  82;

SAVANNAH       RAIN      78  75  90 E9        30.11R FOG
6HR MIN TEMP:  73; 6HR MAX TEMP:  84; 6HR PCP:  0.01;



...SOUTHERN NORTH CAROLINA...

CITY           SKY/WX    TMP DP  RH WIND       PRES   REMARKS
CHARLOTTE      LGT RAIN  79  58  48 SE5       30.18F
6HR MIN TEMP:  70; 6HR MAX TEMP:  82; 6HR PCP: TRACE;

MONROE         CLOUDY    75  63  66 CALM      30.17F
6HR MIN TEMP:  69; 6HR MAX TEMP:  79; 6HR PCP: TRACE;

WADESBORO      CLOUDY    81  59  46 CALM      30.16R
6HR MIN TEMP:  66; 6HR MAX TEMP:  82;

ROCKINGHAM     CLOUDY    79  63  56 E5        30.16R
6HR MIN TEMP:  66; 6HR MAX TEMP:  80;

RUTHERFORDTON  CLOUDY    78  60  54 E5        30.19S
6HR MIN TEMP:  66; 6HR MAX TEMP:  78;

ASHEVILLE      CLOUDY    76  57  51 CALM      30.22F
6HR MIN TEMP:  64; 6HR MAX TEMP:  76;


$$



USA.gov is the U.S. government's official web portal to all federal, state and local government web resources and services.